Terminal Aerodrome Forecast
Issued by NWS

Home | Current Version | Previous Version | Text Only | Print | Product List | Glossary On
Versions: 1 2 3 4 5 6 7 8 9 10 11 12 13 14 15 16 17 18 19 20 21
000
FTUS41 KGYX 031725
TAFRKD
TAF
KRKD 031725Z 0318/0418 18009KT P6SM FEW050
     FM040000 22003KT P6SM FEW100
      TEMPO 0407/0411 BKN005
     FM041500 19008KT P6SM FEW250
      AMD LTD TO CLD VIS AND WIND=

USA.gov is the U.S. government's official web portal to all federal, state and local government web resources and services.